Regional Weather Roundup
Issued by NWS Raleigh/Durham, NC

Home | Current Version | Previous Version | Text Only | Print | Product List | Glossary On
Versions: 1 2 3 4 5 6 7 8 9 10 11 12 13 14 15 16 17 18 19 20 21 22 23 24 25 26 27 28 29 30 31 32 33 34 35 36 37 38 39 40 41 42 43 44 45 46 47 48 49 50
000
ASUS42 KRAH 301810
RWRRAH
NORTH CAROLINA WEATHER ROUNDUP
NATIONAL WEATHER SERVICE RALEIGH NC
200 PM EDT SAT AUG 30 2014

NOTE: "FAIR" INDICATES FEW OR NO CLOUDS BELOW 12,000 FEET WITH NO
SIGNIFICANT WEATHER AND/OR OBSTRUCTIONS TO VISIBILITY.

NCZ001-053-055-056-065-067-301900-
WESTERN NORTH CAROLINA

CITY           SKY/WX    TMP DP  RH WIND       PRES   REMARKS
ASHEVILLE      MOSUNNY   82  64  54 SE8G17    30.24
JEFFERSON      PTSUNNY   76  63  63 SE7       30.30F
HICKORY        NOT AVBL
RUTHERFORDTON  NOT AVBL
MOUNT AIRY     NOT AVBL
BOONE          MOSUNNY   81  62  51 SW7       30.31F
$$

NCZ021-022-025-041-071-084-088-301900-
CENTRAL NORTH CAROLINA

CITY           SKY/WX    TMP DP  RH WIND       PRES   REMARKS
CHARLOTTE      NOT AVBL
GREENSBORO     MOSUNNY   88  69  53 SW10      30.19F
WINSTON-SALEM  MOSUNNY   88  64  44 VRB3      30.20F
RALEIGH-DURHAM MOSUNNY   86  70  58 SE7       30.20F
FORT BRAGG       N/A     89  71  54 E3        30.17F
FAYETTEVILLE   MOSUNNY   90  70  51 SE9       30.17F HX  95
BURLINGTON     PTSUNNY   89  67  47 VRB7      30.19F
LAURINBURG     PTSUNNY   89  70  53 VRB5      30.17F
$$

NCZ011-015-027-028-043-044-047-080-103-301900-
NORTHEASTERN NORTH CAROLINA

CITY           SKY/WX    TMP DP  RH WIND       PRES   REMARKS
ROCKY MT-WILSO MOSUNNY   87  70  56 CALM      30.19F
GREENVILLE     SUNNY     88  70  55 S6        30.20F
WASHINGTON     MOSUNNY   85  72  64 SE5       30.19F
ELIZABETH CITY SUNNY     84  73  69 E9        30.20
MANTEO         CLOUDY    82  75  78 E8        30.21S
CAPE HATTERAS  MOSUNNY   84  75  74 S9        30.20
$$

NCZ078-087-090-091-093-098-101-301900-
SOUTHEASTERN NORTH CAROLINA

CITY           SKY/WX    TMP DP  RH WIND       PRES   REMARKS
LUMBERTON      MOSUNNY   91  72  53 VRB6      30.16F HX  98
GOLDSBORO      MOSUNNY   89  71  54 VRB2      30.17F
KINSTON        SUNNY     88  70  55 NE6       30.19F
KENANSVILLE    PTSUNNY   85  69  58 CALM      30.19F
NEW BERN       SUNNY     91  62  37 S5        30.19F
CHERRY POINT   MOSUNNY   86  71  60 SE10      30.20F
BEAUFORT       MOSUNNY   86  75  69 S9        30.20F HX  95
JACKSONVILLE   MOSUNNY   85  73  67 E9        30.18F
WILMINGTON     MOSUNNY   86  74  67 SE9       30.19F
$$



USA.gov is the U.S. government's official web portal to all federal, state and local government web resources and services.